Regional Weather Roundup
Issued by NWS

Home | Current Version | Previous Version | Text Only | Print | Product List | Glossary On
Versions: 1 2 3 4 5 6 7 8 9 10 11 12 13 14 15 16 17 18 19 20 21 22 23 24 25 26 27 28
000
ASUS42 KKEY 281410
RWRKEY

FLORIDA REGIONAL WEATHER ROUNDUP FOR THE FLORIDA KEYS
NATIONAL WEATHER SERVICE KEY WEST FLORIDA
1000 AM EDT FRI APR 28 2017

...SOUTH FLORIDA AND THE KEYS...

CITY           SKY/WX    TMP DP  RH WIND       PRES   REMARKS
FORT MYERS     MOSUNNY   84  75  74 SE12      30.05R HX  92
SW REGIONAL AP MOSUNNY   82  73  74 SE9       30.06R
NAPLES         PTSUNNY   84  75  74 SE12      30.05R HX  92
MIAMI          MOSUNNY   84  71  65 E14       30.08R
WEST KENDALL   PTSUNNY   84  72  67 SE10      30.07R
HOMESTEAD      DRIZZLE   82  75  78 SE12      30.07R
MARATHON       SUNNY     84  77  79 SE8G17    30.04R HX  94
BOCA CHICA NAS MOSUNNY   81  79  94 SE14      30.04R HX  90
KEY WEST INTL  MOSUNNY   83  78  85 SE9       30.04R HX  93

...INTERNATIONAL WEATHER...

CITY           SKY/WX    TMP DP  RH WIND       PRES   REMARKS
NASSAU BAHAMAS MOSUNNY   82  75  78 E14       30.10R
CANCUN MEXICO  MOSUNNY   84  79  84 SE18      29.89R HX  96
COZUMEL MEXICO PTSUNNY   82  77  83 SE13G24   29.86R HX  91

ADJACENT COASTAL WATERS...

STATION/POSITION TIME  SKY/WX   TEMP    WIND        PRES    WAVE
                                AIR SEA DIR/SP/G            HT/PER
                 (UTC)          (F)     (DEG/KT/KT) (MB)    (FT/S)
PULASKI SHOAL LI 1400            79     130/ 12/ 12 1016.5R
SAND KEY         1350            79     140/  7/  9 1017.6R
LONG KEY         1300            81 81  140/ 11/ 12 1017.2R
MOLASSES REEF    1400            79 79  130/ 12/ 14 1018.4R
FOWEY ROCKS      1400            79 78  100/ 12/ 13 1019.0R
Buoy 42097       1330                                 N/A     3/ 7

$$




USA.gov is the U.S. government's official web portal to all federal, state and local government web resources and services.